Regional Weather Roundup
Issued by NWS Charleston, SC

Home | Current Version | Previous Version | Text Only | Print | Product List | Glossary On
Versions: 1 2 3 4 5 6 7 8 9 10 11 12 13 14 15 16 17 18 19 20 21 22 23 24 25 26 27 28 29 30 31 32 33 34 35 36 37 38 39 40 41 42 43 44 45 46 47 48 49 50
000
ASUS42 KCHS 260027
RWRCHS

REGIONAL WEATHER ROUNDUP
NATIONAL WEATHER SERVICE CHARLESTON SC
800 PM EDT TUE JUL 25 2017

NOTE: "FAIR" INDICATES FEW OR NO CLOUDS BELOW 12,000 FEET WITH NO
SIGNIFICANT WEATHER AND/OR OBSTRUCTIONS TO VISIBILITY.

NOT ALL STATIONS ARE QUALITY CONTROLLED. USE DATA WITH CAUTION...
ESPECIALLY DEWPOINT OBSERVATIONS.

SCZ027-030-031-034>040-042>050-260100-
...SOUTHEAST SOUTH CAROLINA...

CITY           SKY/WX    TMP DP  RH WIND       PRES   REMARKS
N CHARLESTON   CLOUDY    79  74  84 CALM      30.04F
6HR MIN TEMP:  78; 6HR MAX TEMP:  93; 6HR PCP: TRACE;

WATERFRONT PRK   N/A     82  80  94 VRB2      30.03R HX  94
JOHNS ISLAND   FAIR      82  81  94 CALM      30.05F HX  95
PINOPOLIS        N/A     84  73  70 SW5       29.99R HX  91
MONCKS CORNER  FAIR      79  72  78 CALM      30.05S
SUMMERVILLE    FAIR      79  72  78 SW3       30.06S
BEAUFORT MCAS  LGT RAIN  77  76  96 SW3       30.05F
6HR MIN TEMP:  77; 6HR MAX TEMP:  92; 6HR PCP:  0.08;

BEAUFORT ARPT  FAIR      77  73  88 CALM      30.05S
HILTON HEAD IS CLOUDY    77  75  94 VRB3      30.05F
WALTERBORO     NOT AVBL
ALLENDALE      NOT AVBL

...SOUTHERN MIDLANDS AND PEE DEE...

CITY           SKY/WX    TMP DP  RH WIND       PRES   REMARKS
GEORGETOWN     FAIR      81  79  94 SW5       30.06S
KINGSTREE      LGT RAIN  81  77  89 CALM      30.05R
ORANGEBURG     CLOUDY    83  74  74 SW10      30.06R
6HR MIN TEMP:  83; 6HR MAX TEMP:  93;

BARNWELL       FAIR      79  73  83 W6        30.08R
AIKEN          FAIR      73  70  88 SE3       30.13F THUNDER
MANNING        FAIR      84  77  79 S3        30.05R HX  94
COLUMBIA       CLOUDY    84  69  60 NE14G24   30.08R THUNDER
6HR MIN TEMP:  82; 6HR MAX TEMP:  96;

SUMTER         MOCLDY    77  73  86 SW9       30.04R
6HR MIN TEMP:  77; 6HR MAX TEMP:  94; 6HR PCP:  0.05;

FLORENCE       CLOUDY    86  80  82 CALM      30.05R HX 101
6HR MIN TEMP:  86; 6HR MAX TEMP:  93;

MYRTLE BEACH   CLEAR     84  75  74 SW7       30.05R HX  92
N MYRTLE BEACH CLOUDY    83  78  85 SW10      30.05R HX  93
6HR MIN TEMP:  83; 6HR MAX TEMP:  88;


$$

GAZ063-065-086>088-099>101-113>116-118-119-134>141-150-260100-
...SOUTHEAST GEORGIA...

CITY           SKY/WX    TMP DP  RH WIND       PRES   REMARKS
SAVANNAH ARPT  LGT RAIN  77  72  84 NW5       30.06F
6HR MIN TEMP:  77; 6HR MAX TEMP:  92; 6HR PCP:  0.33;

HUNTER AAF     CLOUDY    76  75  95 W3        30.03F
6HR MIN TEMP:  75; 6HR MAX TEMP:  92; 6HR PCP:  0.30;

FORT STEWART   LGT RAIN  77  72  83 CALM      30.06S
6HR MIN TEMP:  77; 6HR MAX TEMP:  92; 6HR PCP: TRACE;

STATESBORO     LGT RAIN  74  74 100 CALM      30.06F
SYLVANIA       LGT RAIN  74  74 100 CALM      30.07F
CLAXTON        CLOUDY    75  74  95 CALM      30.07F

...CSRA...CENTRAL AND FAR SOUTHEAST GEORGIA...

CITY           SKY/WX    TMP DP  RH WIND       PRES   REMARKS
THOMSON        MOCLDY    83  75  77 SW5       30.13R HX  91
AUGUSTA-BUSH   TSTM      75  72  90 S8        30.07S
6HR MIN TEMP:  75; 6HR MAX TEMP:  95; 6HR PCP:  0.27;

AUGUSTA-DANIEL CLOUDY    76  70  82 SW6       30.09R THUNDER
SWAINSBORO     LGT RAIN  73  73 100 N3        30.09F
VIDALIA        CLOUDY    77  72  83 CALM      30.09R
EASTMAN        CLOUDY    77  77 100 CALM      30.11F
HAZLEHURST     LGT RAIN  78  78 100 NE5       30.07F
ALMA           CLOUDY    81  74  79 N9G18     30.08R
6HR MIN TEMP:  81; 6HR MAX TEMP:  93;

WAYCROSS       CLOUDY    84  80  88 N6        30.08R HX  98
JESUP          NOT AVBL
BAXLEY         CLOUDY    77  77 100 NE3       30.09F
BRUNSWICK      CLOUDY    79  73  83 N10G16    30.08R THUNDER
SAINT SIMONS   CLOUDY    84  78  82 S3        30.05R HX  95
6HR MIN TEMP:  84; 6HR MAX TEMP:  90;


$$

SCZ027-028-034-036>038-045-046-048>050-GAZ119-141-260100-
...LAKE AND SUPPLEMENTAL COASTAL OBSERVATIONS...

STATION/POSITION TIME  TEMP    WIND        PRES    WAVE   SWELL
                       AIR SEA DIR/SP/G            HT/PER HT/PER/DIR
                 (UTC) (F)     (DEG/KT/KT) (MB)    (FT/S) (FT/S/D)
WINYAH BAY       2345   85     240/  5     1017.0S
LAKE MURRAY      0020   83      60/  4/ 14 1017.9R
ACE BASIN NERRS  2330   77     240/  1     1018.0S
FORT PULASKI     0000   77 85  360/  5/  7 1017.9
SAPELO ISLAND    0000   77     300/ 13     1018.0

$$

ANZ835-935-AMZ111-154-330-350-352-354-370-450-454-472-260100-
...C-MAN AND BUOY OBSERVATIONS...

STATION/POSITION TIME  TEMP    WIND        PRES    WAVE   SWELL
                       AIR SEA DIR/SP/G            HT/PER HT/PER/DIR
                 (UTC) (F)     (DEG/KT/KT) (MB)    (FT/S) (FT/S/D)
BUOY 41004       0010   82 83  230/ 12/ 14 1017.3
BUOY 41008       2350   82 81  170/ 10/ 12 1017.2F   2/ 8   2/130/ 8
FOLLY BEACH CMAN 0000   83     230/  7/  9 1018.0F
CAPERS NEARSHORE 0008   81 85  240/ 10/ 14 1017.3F
FRIPP NEARSHORE  0008   81 85  280/  8/ 12 1016.9F


STATION/POSITION TIME  TEMP    WIND        PRES    WAVE   SWELL
                       AIR SEA DIR/SP/G            HT/PER HT/PER/DIR
                 (UTC) (F)     (DEG/KT/KT) (MB)    (FT/S) (FT/S/D)
5E ST. MARYS GA  0000      79                N/A     2/ 8
FRYING PAN BUOY  0010   82 83  230/ 10/ 12 1017.1
BUOY 41025       2350   80 84   40/ 14/ 17 1018.2R   4/ 4   2/160/10
CAPE LOOKOUT NC  0000   82      CALM  /  2 1017.8R
BUOY 41002       2350   82 83  200/ 10/ 12 1019.3R   4/ 7   3/210/ 7
BUOY 41010       0010   85 85  160/  8/ 10 1019.0
ST AUGUSTINE FL  0000   81 75  170/  7/  8 1018.8R


$$



USA.gov is the U.S. government's official web portal to all federal, state and local government web resources and services.